Cotulla, TX

1:24 AM CDT on September 23, 2017 (GMT -0500)
Cotulla-La Salle County

Weather History for KCOT - April, 2013

Change the Weather History Date:

Tuesday, April 23, 2013

  Actual Average Record
Temperature  
Mean Temperature 76 °F -  
Max Temperature 84 °F 84 °F 98 °F (1999)
Min Temperature 64 °F 61 °F 53 °F (1998)
Cooling Degree Days 10    
Growing Degree Days 26 (Base 50)    
Moisture  
Dew Point 64 °F    
Average Humidity 69    
Maximum Humidity 84    
Minimum Humidity 54    
Precipitation  
Precipitation 0.00 in - - ()
Sea Level Pressure  
Sea Level Pressure 29.84 in    
Wind  
Wind Speed 11 mph (ESE)    
Max Wind Speed 16 mph    
Max Gust Speed 30 mph    
Visibility 10 miles    
Events      
Averages and records for this station are not official NWS values.
T = Trace of Precipitation, MM = Missing Value Source: NWS Daily Summary

Daily Weather History Graph

Daily Weather History Graph

Search for Another Location

Airport or City:

Trip Planner

Search our weather history database for the weather conditions in past years. The results will help you decide how hot, cold, wet, or windy it might be!

Date:

Astronomy

Apr. 23, 2013 Rise Set
Actual Time 7:03 AM CDT 8:07 PM CDT
Civil Twilight 6:38 AM CDT 8:31 PM CDT
Nautical Twilight 6:09 AM CDT 9:01 PM CDT
Astronomical Twilight 5:39 AM CDT 9:30 PM CDT
Moon 6:12 PM CDT 5:21 AM CDT
Length of Visible Light 13h 53m
Length of Day
13h 04m
Waxing Gibbous, 94% of the Moon is Illuminated
Apr 23
Waxing Gibbous
Apr 25
Full
May 2
Last Quarter
May 9
New
May 17
First Quarter

Hourly Weather History & Observations

Time (CDT) Temp. Heat Index Dew Point Humidity Pressure Visibility Wind Dir Wind Speed Gust Speed Precip Events Conditions
12:53 AM 72.0 °F - 64.0 °F 76% 29.87 in 10.0 mi SSE 11.5 mph 20.7 mph N/A   Clear
1:53 AM 70.0 °F - 64.0 °F 81% 29.85 in 10.0 mi SE 10.4 mph - N/A   Clear
2:30 AM 69.8 °F - 64.4 °F 83% 29.86 in 10.0 mi SE 10.4 mph - N/A   Mostly Cloudy
2:53 AM 70.0 °F - 64.9 °F 84% 29.83 in 10.0 mi SSE 15.0 mph 19.6 mph N/A   Overcast
3:53 AM 71.1 °F - 64.0 °F 78% 29.81 in 10.0 mi South 11.5 mph 23.0 mph N/A   Overcast
4:53 AM 71.6 °F - 62.6 °F 73% 29.83 in 10.0 mi SSE 10.4 mph 18.4 mph N/A   Overcast
5:53 AM 72.0 °F - 63.0 °F 73% 29.81 in 10.0 mi SSE 9.2 mph - N/A   Overcast
6:53 AM 72.0 °F - 64.0 °F 76% 29.81 in 10.0 mi SE 8.1 mph - N/A   Overcast
7:53 AM 73.0 °F - 64.0 °F 73% 29.83 in 10.0 mi SE 8.1 mph - N/A   Overcast
8:53 AM 73.0 °F - 64.9 °F 76% 29.84 in 10.0 mi SE 8.1 mph - N/A   Overcast
9:53 AM 73.9 °F - 64.9 °F 73% 29.85 in 10.0 mi ESE 8.1 mph - N/A   Overcast
10:53 AM 75.9 °F - 64.9 °F 69% 29.85 in 9.0 mi SSE 10.4 mph - N/A   Overcast
11:53 AM 78.1 °F - 64.9 °F 64% 29.85 in 9.0 mi SE 10.4 mph 17.3 mph N/A   Overcast
12:01 PM 78.8 °F - 64.4 °F 61% 29.87 in 9.0 mi SE 11.5 mph - N/A   Overcast
12:48 PM 80.6 °F 82.3 °F 64.4 °F 58% 29.86 in 9.0 mi SE 12.7 mph 16.1 mph N/A   Overcast
12:53 PM 80.1 °F 81.9 °F 64.9 °F 60% 29.84 in 9.0 mi ESE 11.5 mph 18.4 mph N/A   Overcast
1:53 PM 79.0 °F - 64.9 °F 62% 29.85 in 9.0 mi ESE 10.4 mph - N/A   Overcast
2:53 PM 80.1 °F 81.9 °F 64.9 °F 60% 29.83 in 9.0 mi East 10.4 mph - N/A   Overcast
3:53 PM 82.9 °F 84.6 °F 64.9 °F 54% 29.80 in 10.0 mi ENE 12.7 mph 18.4 mph N/A   Mostly Cloudy
4:53 PM 82.0 °F 83.8 °F 64.9 °F 56% 29.78 in 9.0 mi ENE 11.5 mph - N/A   Overcast
5:53 PM 81.0 °F 82.7 °F 64.9 °F 58% 29.79 in 10.0 mi ENE 12.7 mph 19.6 mph N/A   Overcast
6:53 PM 80.1 °F 82.1 °F 66.0 °F 62% 29.81 in 10.0 mi East 13.8 mph - N/A   Mostly Cloudy
7:53 PM 78.1 °F - 66.9 °F 68% 29.82 in 10.0 mi East 10.4 mph - N/A   Mostly Cloudy
8:53 PM 77.0 °F - 66.0 °F 69% 29.84 in 10.0 mi East 9.2 mph - N/A   Overcast
9:53 PM 75.9 °F - 66.0 °F 71% 29.89 in 10.0 mi East 9.2 mph - N/A   Scattered Clouds
10:53 PM 75.9 °F - 66.9 °F 74% 29.93 in 10.0 mi ENE 6.9 mph - N/A   Mostly Cloudy
11:53 PM 64.9 °F - 53.1 °F 65% 29.96 in 10.0 mi NE 16.1 mph 29.9 mph N/A   Overcast